When you browse on this site, cookies collect data to enhance your experience and personalize the content and advertising you see.
Visit our Privacy Policy to learn more. By continuing to use the site, you agree to this use of cookies and data.
  • In United Kingdom
  • List of Countries
  • For 7 days
  • Water Temperature
  • Satellite Maps
  • Weather Map
  • Weather Widgets
  • user-avatar
    Login

    Hourly Weather Kerewan

    Today, 17 January, Thursday

    Time Temperature Precipitation Wind Pressure Humidity
    00:00 +26°C° 0 mm 3 mps 758 mmHg 29%
    01:00 +25°C° 0 mm 3 mps 758 mmHg 30%
    02:00 +24°C° 0 mm 3 mps 757 mmHg 31%
    03:00 +24°C° 0 mm 3 mps 757 mmHg 31%
    04:00 +22°C° 0 mm 3 mps 757 mmHg 31%
    05:00 +23°C° 0 mm 2 mps 758 mmHg 31%
    06:00 +23°C° 0 mm 2 mps 758 mmHg 28%
    07:00 +24°C° 0 mm 2 mps 758 mmHg 26%
    08:00 +25°C° 0 mm 2 mps 758 mmHg 23%
    09:00 +28°C° 0 mm 3 mps 758 mmHg 19%
    10:00 +31°C° 0 mm 3 mps 758 mmHg 14%
    11:00 +35°C° 0 mm 3 mps 758 mmHg 8%
    12:00 +36°C° 0 mm 3 mps 758 mmHg 8%
    13:00 +38°C° 0 mm 3 mps 757 mmHg 7%
    14:00 +39°C° 0 mm 3 mps 756 mmHg 7%
    15:00 +38°C° 0 mm 3 mps 756 mmHg 9%
    16:00 +38°C° 0 mm 3 mps 756 mmHg 11%
    17:00 +37°C° 0 mm 4 mps 756 mmHg 12%
    18:00 +34°C° 0 mm 4 mps 756 mmHg 19%
    19:00 +32°C° 0 mm 4 mps 757 mmHg 26%
    20:00 +28°C° 0 mm 4 mps 757 mmHg 34%
    21:00 +28°C° 0 mm 4 mps 757 mmHg 27%
    22:00 +27°C° 0 mm 4 mps 758 mmHg 21%
    23:00 +26°C° 0 mm 4 mps 758 mmHg 15%

    Tomorrow, 18 January, Friday

    Time Temperature Precipitation Wind Pressure Humidity
    00:00 +26°C° 0 mm 4 mps 758 mmHg 16%
    01:00 +25°C° 0 mm 4 mps 758 mmHg 17%
    02:00 +23°C° 0 mm 4 mps 758 mmHg 17%
    03:00 +23°C° 0 mm 4 mps 758 mmHg 16%
    04:00 +22°C° 0 mm 4 mps 758 mmHg 14%
    05:00 +22°C° 0 mm 4 mps 758 mmHg 12%
    06:00 +22°C° 0 mm 5 mps 758 mmHg 14%
    07:00 +23°C° 0 mm 5 mps 759 mmHg 15%
    08:00 +23°C° 0 mm 5 mps 759 mmHg 16%
    09:00 +26°C° 0 mm 5 mps 759 mmHg 14%
    10:00 +29°C° 0 mm 5 mps 759 mmHg 11%
    11:00 +32°C° 0 mm 5 mps 759 mmHg 9%
    12:00 +34°C° 0 mm 5 mps 759 mmHg 8%
    13:00 +35°C° 0 mm 5 mps 758 mmHg 8%
    14:00 +36°C° 0 mm 5 mps 757 mmHg 8%
    15:00 +36°C° 0 mm 5 mps 757 mmHg 8%
    16:00 +35°C° 0 mm 5 mps 757 mmHg 9%
    17:00 +35°C° 0 mm 5 mps 757 mmHg 10%
    18:00 +33°C° 0 mm 5 mps 757 mmHg 11%
    19:00 +30°C° 0 mm 5 mps 758 mmHg 12%
    20:00 +28°C° 0 mm 5 mps 758 mmHg 14%
    21:00 +28°C° 0 mm 5 mps 759 mmHg 15%
    22:00 +27°C° 0 mm 5 mps 759 mmHg 16%
    23:00 +26°C° 0 mm 5 mps 759 mmHg 17%

    Day after tomorrow, 19 January, Saturday

    Time Temperature Precipitation Wind Pressure Humidity
    00:00 +25°C° 0 mm 5 mps 759 mmHg 19%
    01:00 +23°C° 0 mm 5 mps 759 mmHg 21%
    02:00 +23°C° 0 mm 5 mps 759 mmHg 22%
    03:00 +22°C° 0 mm 5 mps 759 mmHg 23%
    04:00 +21°C° 0 mm 5 mps 759 mmHg 24%
    05:00 +21°C° 0 mm 5 mps 759 mmHg 25%
    06:00 +21°C° 0 mm 6 mps 760 mmHg 25%
    07:00 +22°C° 0 mm 6 mps 760 mmHg 24%
    08:00 +22°C° 0 mm 7 mps 760 mmHg 24%
    09:00 +24°C° 0 mm 7 mps 760 mmHg 22%
    10:00 +27°C° 0 mm 7 mps 760 mmHg 20%
    11:00 +29°C° 0 mm 6 mps 760 mmHg 18%
    12:00 +30°C° 0 mm 6 mps 759 mmHg 16%
    13:00 +33°C° 0 mm 6 mps 759 mmHg 14%
    14:00 +34°C° 0 mm 5 mps 758 mmHg 13%
    15:00 +34°C° 0 mm 5 mps 758 mmHg 12%
    16:00 +34°C° 0 mm 4 mps 757 mmHg 12%
    17:00 +34°C° 0 mm 4 mps 757 mmHg 11%
    18:00 +32°C° 0 mm 4 mps 758 mmHg 12%
    19:00 +29°C° 0 mm 3 mps 758 mmHg 13%
    20:00 +27°C° 0 mm 3 mps 759 mmHg 13%
    21:00 +26°C° 0 mm 3 mps 759 mmHg 13%
    22:00 +26°C° 0 mm 4 mps 759 mmHg 13%
    23:00 +25°C° 0 mm 4 mps 760 mmHg 12%

    20 January, Sunday

    Time Temperature Precipitation Wind Pressure Humidity
    00:00 +23°C° 0 mm 4 mps 759 mmHg 13%
    01:00 +23°C° 0 mm 4 mps 759 mmHg 14%
    02:00 +22°C° 0 mm 4 mps 759 mmHg 15%
    03:00 +21°C° 0 mm 4 mps 759 mmHg 15%
    04:00 +20°C° 0 mm 4 mps 759 mmHg 16%
    05:00 +20°C° 0 mm 4 mps 759 mmHg 17%
    06:00 +20°C° 0 mm 4 mps 760 mmHg 17%
    07:00 +21°C° 0 mm 5 mps 760 mmHg 17%
    08:00 +21°C° 0 mm 5 mps 761 mmHg 17%
    09:00 +25°C° 0 mm 5 mps 760 mmHg 15%
    10:00 +28°C° 0 mm 5 mps 760 mmHg 13%
    11:00 +32°C° 0 mm 5 mps 760 mmHg 11%
    12:00 +33°C° 0 mm 4 mps 759 mmHg 10%
    13:00 +34°C° 0 mm 4 mps 758 mmHg 9%
    14:00 +36°C° 0 mm 3 mps 757 mmHg 8%
    15:00 +36°C° 0 mm 3 mps 757 mmHg 8%
    16:00 +36°C° 0 mm 3 mps 757 mmHg 8%
    17:00 +35°C° 0 mm 3 mps 757 mmHg 8%
    18:00 +33°C° 0 mm 3 mps 758 mmHg 10%
    19:00 +30°C° 0 mm 2 mps 759 mmHg 12%
    20:00 +28°C° 0 mm 2 mps 759 mmHg 14%
    21:00 +27°C° 0 mm 3 mps 760 mmHg 14%
    22:00 +26°C° 0 mm 3 mps 760 mmHg 13%
    23:00 +25°C° 0 mm 3 mps 760 mmHg 13%

    21 January, Monday

    Time Temperature Precipitation Wind Pressure Humidity
    00:00 +25°C° 0 mm 3 mps 760 mmHg 12%
    01:00 +24°C° 0 mm 3 mps 759 mmHg 11%
    02:00 +22°C° 0 mm 3 mps 759 mmHg 10%
    03:00 +22°C° 0 mm 3 mps 759 mmHg 10%
    04:00 +21°C° 0 mm 3 mps 759 mmHg 9%
    05:00 +21°C° 0 mm 3 mps 759 mmHg 9%
    06:00 +21°C° 0 mm 4 mps 759 mmHg 8%
    07:00 +22°C° 0 mm 4 mps 760 mmHg 8%
    08:00 +22°C° 0 mm 5 mps 760 mmHg 7%
    09:00 +26°C° 0 mm 5 mps 760 mmHg 7%
    10:00 +29°C° 0 mm 5 mps 760 mmHg 6%
    11:00 +32°C° 0 mm 5 mps 760 mmHg 5%
    12:00 +34°C° 0 mm 4 mps 759 mmHg 5%
    13:00 +35°C° 0 mm 4 mps 758 mmHg 5%
    14:00 +36°C° 0 mm 3 mps 757 mmHg 5%
    15:00 +36°C° 0 mm 3 mps 757 mmHg 5%
    16:00 +36°C° 0 mm 3 mps 757 mmHg 5%
    17:00 +36°C° 0 mm 3 mps 757 mmHg 5%
    18:00 +33°C° 0 mm 3 mps 758 mmHg 7%
    19:00 +30°C° 0 mm 3 mps 758 mmHg 8%
    20:00 +28°C° 0 mm 3 mps 759 mmHg 10%
    21:00 +27°C° 0 mm 3 mps 759 mmHg 8%
    22:00 +26°C° 0 mm 3 mps 759 mmHg 7%
    23:00 +25°C° 0 mm 3 mps 759 mmHg 6%

    22 January, Tuesday

    Time Temperature Precipitation Wind Pressure Humidity
    00:00 +25°C° 0 mm 3 mps 759 mmHg 6%
    01:00 +24°C° 0 mm 3 mps 758 mmHg 6%
    02:00 +22°C° 0 mm 3 mps 758 mmHg 6%
    03:00 +22°C° 0 mm 3 mps 758 mmHg 6%
    04:00 +21°C° 0 mm 3 mps 758 mmHg 6%
    05:00 +20°C° 0 mm 3 mps 758 mmHg 6%
    06:00 +21°C° 0 mm 4 mps 759 mmHg 7%
    07:00 +22°C° 0 mm 4 mps 759 mmHg 7%
    08:00 +22°C° 0 mm 4 mps 760 mmHg 7%
    09:00 +26°C° 0 mm 4 mps 760 mmHg 7%
    10:00 +28°C° 0 mm 4 mps 759 mmHg 6%
    11:00 +32°C° 0 mm 5 mps 759 mmHg 5%
    12:00 +33°C° 0 mm 4 mps 758 mmHg 5%
    13:00 +35°C° 0 mm 4 mps 758 mmHg 4%
    14:00 +36°C° 0 mm 3 mps 757 mmHg 4%
    15:00 +36°C° 0 mm 3 mps 757 mmHg 4%
    16:00 +35°C° 0 mm 3 mps 757 mmHg 4%
    17:00 +35°C° 0 mm 3 mps 757 mmHg 4%
    18:00 +33°C° 0 mm 3 mps 757 mmHg 5%
    19:00 +30°C° 0 mm 3 mps 757 mmHg 5%
    20:00 +28°C° 0 mm 3 mps 758 mmHg 6%
    21:00 +28°C° 0 mm 3 mps 758 mmHg 6%
    22:00 +27°C° 0 mm 3 mps 758 mmHg 6%
    23:00 +26°C° 0 mm 4 mps 758 mmHg 6%
    Show more